GW3225 Weather Reports


time (UTC)temp
C
wind
direction
speed
KPH
gust
KPH
rain 1hr
cm
rain 24hr
cm
rain mn
cm
humidity
%
barometer
mb
20260504042055 10 193 0.0 0.0 0.00 0.00 0.00 52 1009.5
20260504041551 10 121 3.2 4.8 0.00 0.00 0.00 53 1009.7
20260504041047 10 182 0.0 1.6 0.00 0.00 0.00 53 1009.7
20260504040545 10 127 3.2 9.7 0.00 0.00 0.00 53 1009.6
20260504040041 10 211 0.0 1.6 0.00 0.00 0.00 53 1009.6
20260504035538 10 188 0.0 0.0 0.00 0.00 0.00 54 1009.6
20260504035034 10 165 1.6 1.6 0.00 0.00 0.00 54 1009.5
20260504034533 10 212 1.6 3.2 0.00 0.00 0.00 53 1009.7
20260504034029 10 206 3.2 4.8 0.00 0.00 0.00 52 1009.6
20260504033528 10 241 1.6 3.2 0.00 0.00 0.00 53 1009.7
20260504033024 10 252 3.2 3.2 0.00 0.00 0.00 52 1009.6
20260504032521 10 196 0.0 0.0 0.00 0.00 0.00 52 1009.8
20260504032018 10 147 3.2 4.8 0.00 0.00 0.00 52 1009.7
20260504031515 11 171 1.6 1.6 0.00 0.00 0.00 51 1009.8
20260504031011 11 206 0.0 1.6 0.00 0.00 0.00 52 1009.7
20260504030509 11 5 4.8 6.4 0.00 0.00 0.00 51 1009.8
20260504030004 10 183 0.0 1.6 0.00 0.00 0.00 53 1009.6
20260504025501 10 189 0.0 0.0 0.00 0.00 0.00 54 1009.8
20260504024958 10 187 0.0 0.0 0.00 0.00 0.00 54 1009.8
20260504024455 11 197 0.0 1.6 0.00 0.00 0.00 54 1009.7
20260504023953 11 202 1.6 3.2 0.00 0.00 0.00 54 1009.9
20260504023449 11 197 0.0 1.6 0.00 0.00 0.00 53 1009.9
20260504022944 11 196 1.6 1.6 0.00 0.00 0.00 53 1009.9
20260504022441 11 193 0.0 1.6 0.00 0.00 0.00 52 1010.1
20260504021938 11 51 1.6 3.2 0.00 0.00 0.00 52 1010.2
20260504021435 11 189 0.0 0.0 0.00 0.00 0.00 52 1010.2
20260504020932 11 309 4.8 4.8 0.00 0.00 0.00 51 1009.8
20260504020429 11 224 4.8 6.4 0.00 0.00 0.00 52 1009.9
20260504015925 11 179 1.6 3.2 0.00 0.00 0.00 52 1010.0
20260504015421 11 219 3.2 4.8 0.00 0.00 0.00 51 1010.1
20260504014917 11 306 9.7 16.1 0.00 0.00 0.00 50 1010.1
20260504014414 12 343 4.8 14.5 0.00 0.00 0.00 49 1010.3
20260504013911 12 276 6.4 6.4 0.00 0.00 0.00 47 1010.1
20260504013409 12 105 4.8 6.4 0.00 0.00 0.00 48 1009.9
20260504012905 12 181 8.0 16.1 0.00 0.00 0.00 47 1009.9
20260504012403 11 324 8.0 16.1 0.00 0.00 0.00 48 1009.9
20260504011900 11 320 8.0 14.5 0.00 0.00 0.00 47 1009.8
20260504011356 11 241 1.6 1.6 0.00 0.00 0.00 48 1010.1
20260504010847 11 301 4.8 6.4 0.00 0.00 0.00 49 1009.8
20260504010343 11 247 4.8 4.8 0.00 0.00 0.00 49 1009.9
20260504005839 11 26 3.2 4.8 0.00 0.00 0.00 49 1010.2
20260504005336 11 289 6.4 11.3 0.00 0.00 0.00 48 1010.1
20260504004834 11 199 9.7 20.9 0.00 0.00 0.00 47 1010.3
20260504004331 11 177 6.4 9.7 0.00 0.00 0.00 47 1010.3
20260504003827 11 143 6.4 11.3 0.00 0.00 0.00 46 1010.4
20260504003325 11 194 1.6 3.2 0.00 0.00 0.00 48 1010.2
20260504002821 11 242 8.0 12.9 0.00 0.00 0.00 47 1010.4
20260504002318 11 116 11.3 20.9 0.00 0.00 0.00 46 1010.3
20260504001816 11 289 8.0 11.3 0.00 0.00 0.00 45 1010.4
20260504001313 11 302 9.7 14.5 0.00 0.00 0.00 44 1010.4
20260504000810 11 237 4.8 6.4 0.00 0.00 0.00 45 1010.2
20260504000307 11 293 8.0 9.7 0.00 0.00 0.00 46 1009.9
20260503235804 11 253 3.2 4.8 0.00 0.00 0.00 46 1009.9
20260503235302 11 237 4.8 4.8 0.00 0.00 0.00 45 1009.9
20260503234759 11 199 4.8 4.8 0.00 0.00 0.00 46 1010.0
20260503234257 11 318 6.4 9.7 0.00 0.00 0.00 46 1010.0
20260503233754 11 294 6.4 16.1 0.00 0.00 0.00 45 1010.0
20260503233249 11 310 4.8 4.8 0.00 0.00 0.00 45 1010.1
20260503232746 11 157 6.4 11.3 0.00 0.00 0.00 45 1010.1
20260503232238 11 259 12.9 24.1 0.00 0.00 0.00 44 1010.3
20260503231736 12 303 9.7 14.5 0.00 0.00 0.00 43 1010.2
20260503231233 12 320 16.1 30.6 0.00 0.00 0.00 43 1010.0
20260503230728 12 261 9.7 17.7 0.00 0.00 0.00 43 1010.0
20260503230226 12 44 12.9 17.7 0.00 0.00 0.00 44 1009.9
20260503225718 12 15 8.0 12.9 0.00 0.00 0.00 44 1009.7
20260503225217 12 275 16.1 35.4 0.00 0.00 0.00 42 1009.8
20260503224714 12 148 4.8 6.4 0.00 0.00 0.00 42 1009.5
20260503224212 12 287 4.8 6.4 0.00 0.00 0.00 41 1009.7
20260503223710 12 310 11.3 14.5 0.00 0.00 0.00 40 1009.6
20260503223208 13 288 14.5 22.5 0.00 0.00 0.00 38 1009.6
20260503222704 13 41 9.7 12.9 0.00 0.00 0.00 38 1009.7
20260503222202 13 63 6.4 9.7 0.00 0.00 0.00 38 1009.4
20260503221700 13 298 6.4 6.4 0.00 0.00 0.00 38 1009.6
20260503221157 13 133 8.0 12.9 0.00 0.00 0.00 38 1009.4
20260503220654 13 342 11.3 14.5 0.00 0.00 0.00 38 1009.6
20260503220150 13 288 8.0 11.3 0.00 0.00 0.00 37 1009.5
20260503215647 13 13 6.4 11.3 0.00 0.00 0.00 37 1009.7
20260503215143 13 328 6.4 9.7 0.00 0.00 0.00 37 1009.4
20260503214642 13 242 8.0 12.9 0.00 0.00 0.00 39 1009.4
20260503214137 13 323 9.7 17.7 0.00 0.00 0.00 36 1009.6
20260503213632 13 46 9.7 14.5 0.00 0.00 0.00 38 1009.4
20260503213128 13 305 8.0 9.7 0.00 0.00 0.00 39 1009.2
20260503212626 13 236 4.8 4.8 0.00 0.00 0.00 38 1009.3
20260503212123 14 295 6.4 12.9 0.00 0.00 0.00 37 1009.2
20260503211621 14 269 8.0 11.3 0.00 0.00 0.00 36 1009.4
20260503211116 14 20 11.3 16.1 0.00 0.00 0.00 36 1009.3
20260503210612 15 331 8.0 11.3 0.00 0.00 0.00 35 1009.3
20260503210108 15 142 1.6 3.2 0.00 0.00 0.00 36 1009.3
20260503205604 14 249 8.0 11.3 0.00 0.00 0.00 36 1009.5
20260503205100 15 303 12.9 17.7 0.00 0.00 0.00 36 1009.5
20260503204558 13 282 12.9 17.7 0.00 0.00 0.00 36 1009.7
20260503204055 13 217 4.8 6.4 0.00 0.00 0.00 38 1009.5
20260503203552 14 208 9.7 14.5 0.00 0.00 0.00 37 1009.3
20260503203049 14 3 6.4 11.3 0.00 0.00 0.00 38 1009.5
20260503202547 13 170 3.2 3.2 0.00 0.00 0.00 40 1009.5
20260503202044 13 257 8.0 9.7 0.00 0.00 0.00 39 1009.9
20260503201543 13 278 4.8 4.8 0.00 0.00 0.00 40 1009.9
20260503201039 12 189 3.2 3.2 0.00 0.00 0.00 41 1009.8
20260503200535 12 173 0.0 0.0 0.00 0.00 0.00 42 1009.8
20260503200033 12 201 3.2 3.2 0.00 0.00 0.00 40 1010.1
20260503195530 12 219 1.6 1.6 0.00 0.00 0.00 42 1010.1
20260503195026 11 319 3.2 4.8 0.00 0.00 0.00 41 1010.4
20260503194524 11 301 1.6 3.2 0.00 0.00 0.00 42 1010.4
20260503194023 11 264 3.2 4.8 0.00 0.00 0.00 42 1010.5
20260503193520 11 233 4.8 4.8 0.00 0.00 0.00 41 1010.6
20260503193015 11 140 3.2 4.8 0.00 0.00 0.00 42 1010.6
20260503192512 11 86 3.2 3.2 0.00 0.00 0.00 43 1011.0
20260503192008 11 216 0.0 1.6 0.00 0.00 0.00 44 1011.0
20260503191505 11 219 1.6 3.2 0.00 0.00 0.00 43 1010.8
20260503191002 11 192 3.2 4.8 0.00 0.00 0.00 41 1010.8
20260503190459 11 230 3.2 3.2 0.00 0.00 0.00 42 1011.1
20260503185956 11 202 9.7 14.5 0.00 0.00 0.00 41 1011.0
20260503185452 11 269 4.8 6.4 0.00 0.00 0.00 41 1011.2
20260503184951 11 51 3.2 6.4 0.00 0.00 0.00 42 1011.1
20260503184448 11 13 3.2 4.8 0.00 0.00 0.00 42 1011.4
20260503183944 11 130 3.2 4.8 0.00 0.00 0.00 41 1011.4
20260503183441 11 232 3.2 4.8 0.00 0.00 0.00 42 1011.4
20260503182938 12 271 6.4 9.7 0.00 0.00 0.00 40 1011.7
20260503182437 11 242 6.4 6.4 0.00 0.00 0.00 40 1011.5
20260503181934 11 187 3.2 3.2 0.00 0.00 0.00 43 1011.8
20260503181431 11 66 6.4 6.4 0.00 0.00 0.00 42 1012.1
20260503180927 10 295 3.2 4.8 0.00 0.00 0.00 44 1011.9
20260503180426 10 248 3.2 4.8 0.00 0.00 0.00 43 1012.0
20260503175923 11 229 8.0 16.1 0.00 0.00 0.00 40 1012.0
20260503175421 11 186 3.2 4.8 0.00 0.00 0.00 41 1011.9
20260503174916 11 293 8.0 14.5 0.00 0.00 0.00 40 1012.1
20260503174415 11 202 4.8 4.8 0.00 0.00 0.00 38 1011.9
20260503173914 10 212 3.2 4.8 0.00 0.00 0.00 39 1012.1
20260503173411 11 319 4.8 4.8 0.00 0.00 0.00 38 1012.1
20260503172908 10 187 1.6 1.6 0.00 0.00 0.00 40 1012.2
20260503172406 10 197 1.6 3.2 0.00 0.00 0.00 40 1012.2
20260503171901 11 225 11.3 14.5 0.00 0.00 0.00 36 1012.0
20260503171358 10 344 4.8 4.8 0.00 0.00 0.00 41 1012.1
20260503170856 11 1 4.8 6.4 0.00 0.00 0.00 39 1012.2
20260503170352 11 263 6.4 9.7 0.00 0.00 0.00 40 1012.5
20260503150744 9 310 6.4 9.7 0.00 0.00 0.00 48 1013.2
20260503150240 9 82 1.6 3.2 0.00 0.00 0.00 51 1013.1
20260503140205 7 208 4.8 4.8 0.00 0.00 0.00 64 1013.5
20260503131134 5 284 4.8 4.8 0.00 0.00 0.00 73 1014.0
20260503130632 5 215 3.2 4.8 0.00 0.00 0.00 74 1014.2
20260503130129 5 299 4.8 6.4 0.00 0.00 0.00 75 1013.9
20260503110516 1 221 1.6 1.6 0.00 0.00 0.00 82 1013.9
20260503090403 1 185 1.6 3.2 0.00 0.00 0.00 88 1013.3
20260503081329 1 183 0.0 0.0 0.00 0.00 0.00 87 1013.5
20260503080826 1 174 0.0 0.0 0.00 0.00 0.00 87 1013.5
20260503080323 1 183 0.0 0.0 0.00 0.00 0.00 88 1013.5
20260503072759 1 191 0.0 0.0 0.00 0.00 0.00 86 1013.5
20260503072256 1 193 0.0 0.0 0.00 0.00 0.00 85 1013.7
20260503071752 1 193 0.0 0.0 0.00 0.00 0.00 85 1013.5
20260503071250 1 195 0.0 0.0 0.00 0.00 0.00 85 1013.6
20260503070746 1 185 0.0 0.0 0.00 0.00 0.00 85 1013.6
20260503070244 1 210 1.6 1.6 0.00 0.00 0.00 85 1013.5
20260503060209 2 196 0.0 0.0 0.00 0.00 0.00 81 1013.8
20260503054656 2 168 3.2 3.2 0.00 0.00 0.00 81 1013.9
20260503054153 2 195 0.0 0.0 0.00 0.00 0.00 80 1014.2
20260503053651 2 194 0.0 0.0 0.00 0.00 0.00 80 1014.0
20260503053149 2 196 0.0 0.0 0.00 0.00 0.00 79 1014.0
20260503052645 3 194 0.0 0.0 0.00 0.00 0.00 80 1014.0
20260503052142 3 194 0.0 0.0 0.00 0.00 0.00 79 1014.3
20260503051637 3 195 0.0 0.0 0.00 0.00 0.00 78 1014.2
20260503051135 3 183 0.0 1.6 0.00 0.00 0.00 78 1014.5
20260503050631 3 205 0.0 1.6 0.00 0.00 0.00 78 1014.3
20260503050128 3 194 0.0 0.0 0.00 0.00 0.00 78 1014.4
20260503045626 3 178 0.0 0.0 0.00 0.00 0.00 78 1014.4
20260503045123 3 194 0.0 0.0 0.00 0.00 0.00 78 1014.5
20260503044619 3 194 0.0 0.0 0.00 0.00 0.00 78 1014.5
20260503044117 3 190 0.0 0.0 0.00 0.00 0.00 78 1014.5
20260503043613 3 163 1.6 1.6 0.00 0.00 0.00 78 1014.5
20260503043110 3 167 3.2 3.2 0.00 0.00 0.00 78 1014.7
20260503042607 3 185 0.0 0.0 0.00 0.00 0.00 77 1014.6